OBJECT J, 57174

Orbit data source: Space-Track

You're viewing an uncataloged RSO

Recently launched and/or uncataloged RSOs may have evolving metadata. Metadata may include the following, but is not limited to: Owner, Manufacturer, Bus, Motor, and Mission.

OBJECT J, 57174 is a satellite in SSO that was launched on Tue, 27 Jun 2023 UTC via a SOYUZ-2-1B launch vehicle from the Vostochny Cosmodrome (VOSTO). Unknown objects in Earth's orbit typically refer to objects detected orbiting the Earth but have not yet been identified or cataloged. These objects could be anything from previously untracked satellites, spent rocket stages, debris from satellite collisions, or even natural meteoroids temporarily captured by Earth's gravity.

Loading next visibility...
Identifier
57174, 2023-091J
Orbit
SSO
Country
Flag of TBDTBD
Related business
None
Manufacturer
Unknown
Mission
Operational Amateur Technology
Bus & Motor
Unknown
Mass
Unknown
Launch date (UTC)
2023-06-27 (3 years ago)
Launch vehicle
SOYUZ-2-1B
Launch site
Vostochny Cosmodrome (VOSTO)
Object type
Unknown
Shape & HBR
Box, 0.2 m
Radar Cross Section
0.080 m², Medium (>0.1 m² and < 1m²)

Expand to show TLE details & history
Last TLE update: 8 hours ago

TLE from 8 hours ago
0 OBJECT J
1 57174U 23091J   26248.28272892  .00001981  00000-0  11139-3 0  9998
2 57174  97.4981 300.2299 0011899 225.8866 134.1387 15.14391158175754
Epoch: 2026-09-05T06:47Z
TLE epoch observation values (Epoch: 2026-09-05T06:47:07.778Z)
Latitude
-0.00011°
Longitude
-145.94692°
Altitude
531.632 km
Speed
7.594 km/s
True Right ascension
20h 00m 55s
True Declination
0° 00' 00"
Sunlit
Object was in full shadow at epoch
Visualization orbit readout
Latitude
Unknown
Longitude
Unknown
Altitude
Unknown
Speed
Unknown
Apparent Right ascension
Unknown
Apparent Declination
Unknown
Sunlit
N/A
Visualization observer readout
Local Sidereal Time
07:03:43
Azimuth
Unknown
Elevation
Unknown
Doppler factor
Unknown
Orbital elements
Apogee altitude
528.013 km
Perigee altitude
511.597 km
Semi-major axis
6,897.942 km
Eccentricity
0.00119
Inclination
97.4981°
RAAN
300.2299°
Arg. of periapsis
225.8866°
True anomaly
134.23645°
Mean anomaly
134.1387°
Eccentric anomaly
134.18759°
Mean motion
3.78847 °/min
Orbital period
95.03 mins
BSTAR
0.00011139
Loading maneuver chart data...
Computing Atmospheric mass density...
Loading historical data...
Loading historical data...
Loading historical data...
Loading historical data...
Loading historical data...
Loading historical data...
Loading historical data...

Documentation

Showing up to 5 results
|